EW8783 Weather Reports


time (UTC)temp
F
wind
direction
speed
knots
gust
knots
rain 1hr
in
rain 24hr
in
rain mn
in
humidity
%
barometer
mb
20260507143105 57 348 2.6 7.8 0.00 0.01 0.00 40 1006.8
20260507141550 56 329 1.7 4.3 0.00 0.01 0.00 30 1006.9
20260507140047 56 296 1.7 7.0 0.00 0.01 0.00 1 1007.0
20260507134542 55 267 0.9 8.7 0.00 0.01 0.00 1 1007.0
20260507133039 54 318 2.6 7.0 0.00 0.01 0.00 1 1007.1
20260507131538 53 278 0.9 3.5 0.00 0.01 0.00 1 1007.1
20260507130037 51 355 2.6 7.0 0.00 0.01 0.00 1 1007.1
20260507124534 51 309 0.9 3.5 0.00 0.01 0.00 1 1007.2
20260507123021 50 338 0.0 2.6 0.00 0.01 0.00 1 1007.2
20260507121516 50 334 0.0 0.9 0.00 0.01 0.00 1 1007.5
20260507120011 49 334 0.0 1.7 0.00 0.01 0.00 1 1007.3
20260507114506 49 334 0.0 0.9 0.00 0.01 0.00 1 1007.0
20260507113007 49 334 0.0 0.9 0.00 0.01 0.00 1 1006.7
20260507111559 48 334 0.0 1.7 0.00 0.01 0.00 1 1007.2
20260507110055 48 336 0.0 1.7 0.00 0.01 0.00 1 1006.8
20260507104550 48 331 0.0 1.7 0.00 0.01 0.00 1 1006.5
20260507103052 48 355 0.9 3.5 0.00 0.01 0.00 1 1006.3
20260507101545 49 355 0.9 2.6 0.00 0.01 0.00 1 1006.6
20260507100037 49 360 0.9 4.3 0.00 0.01 0.00 1 1006.8
20260507094534 49 300 0.9 4.3 0.00 0.01 0.00 1 1006.4
20260507093033 49 360 0.9 3.5 0.00 0.01 0.00 1 1006.2
20260507091524 49 307 0.9 3.5 0.00 0.01 0.00 1 1006.1
20260507090019 49 288 0.0 1.7 0.00 0.01 0.00 1 1006.4
20260507084514 50 300 0.9 3.5 0.00 0.01 0.00 1 1005.8
20260507083011 50 324 0.9 5.2 0.00 0.01 0.00 1 1005.9
20260507081508 50 332 0.9 4.3 0.00 0.01 0.00 1 1006.0
20260507080003 51 298 1.7 7.0 0.00 0.01 0.00 1 1006.5
20260507074600 53 294 2.6 7.0 0.00 0.01 0.00 1 1006.0
20260507073055 55 275 4.3 10.4 0.00 0.01 0.00 1 1005.7
20260507071549 56 317 0.9 5.2 0.00 0.01 0.00 1 1004.7
20260507070046 56 337 1.7 4.3 0.00 0.01 0.00 1 1004.8
20260507064541 56 15 0.9 5.2 0.00 0.01 0.00 1 1004.9
20260507063041 57 73 0.9 3.5 0.00 0.01 0.00 1 1004.9
20260507061532 57 314 0.0 3.5 0.00 0.01 0.00 1 1004.9
20260507060027 57 226 0.0 0.0 0.00 0.01 0.00 1 1004.9
20260507054522 57 226 0.0 0.0 0.00 0.01 0.00 1 1005.1
20260507053018 57 226 0.0 0.0 0.00 0.01 0.00 1 1005.4
20260507051514 57 226 0.0 0.9 0.00 0.01 0.00 1 1005.5
20260507050014 57 226 0.0 0.9 0.00 0.01 0.00 1 1005.6
20260507044505 57 226 0.0 0.9 0.00 0.01 0.00 1 1005.6
20260507043001 57 226 0.0 1.7 0.00 0.01 0.00 1 1005.6
20260507041601 57 226 0.0 0.9 0.00 0.01 0.00 1 1005.3
20260507040052 57 226 0.0 0.9 0.00 0.01 0.00 1 1005.5
20260507034551 57 223 0.0 1.7 0.00 0.01 0.01 1 1005.3
20260507033045 57 226 0.9 3.5 0.00 0.01 0.01 1 1005.8
20260507031545 56 212 0.9 2.6 0.00 0.01 0.01 1 1005.6
20260507030036 56 216 0.0 3.5 0.00 0.01 0.01 1 1005.6
20260507024531 56 137 0.9 3.5 0.00 0.01 0.01 1 1005.4
20260507023027 56 231 0.9 3.5 0.00 0.01 0.01 1 1005.7
20260507021523 56 161 1.7 4.3 0.00 0.01 0.01 1 1005.4
20260507020034 56 184 0.9 2.6 0.00 0.01 0.01 1 1005.6
20260507014513 56 180 0.9 2.6 0.00 0.01 0.01 1 1005.6
20260507013008 56 228 1.7 5.2 0.00 0.01 0.01 1 1005.7
20260507011509 56 226 0.9 3.5 0.00 0.01 0.01 1 1005.9
20260507010001 56 223 0.9 3.5 0.00 0.01 0.01 1 1006.1
20260507004556 56 224 0.9 6.1 0.00 0.01 0.01 1 1006.0
20260507003106 56 234 1.7 4.3 0.00 0.01 0.01 1 1005.9
20260507001609 56 223 0.9 3.5 0.00 0.01 0.01 1 1005.9
20260507000045 56 168 2.6 6.1 0.00 0.01 0.01 1 1006.0
20260506234540 56 178 1.7 6.1 0.00 0.01 0.01 1 1005.9
20260506233035 56 185 1.7 4.3 0.00 0.01 0.01 1 1005.9
20260506231530 56 205 1.7 4.3 0.00 0.01 0.01 1 1005.9
20260506230038 56 204 1.7 4.3 0.00 0.01 0.01 1 1006.0
20260506224522 56 169 0.9 5.2 0.00 0.01 0.01 1 1005.8
20260506223026 56 172 2.6 6.1 0.00 0.01 0.01 1 1005.9
20260506221513 57 165 3.5 7.8 0.00 0.01 0.01 1 1006.0
20260506220009 57 218 1.7 5.2 0.00 0.01 0.01 1 1006.3
20260506214504 57 208 2.6 7.0 0.00 0.01 0.01 1 1006.3
20260506213105 58 201 1.7 6.1 0.00 0.01 0.01 1 1006.4
20260506211556 58 153 1.7 7.8 0.00 0.01 0.01 1 1006.5
20260506210057 58 202 1.7 7.0 0.00 0.01 0.01 1 1006.5
20260506204550 59 162 2.6 6.1 0.00 0.01 0.01 1 1006.6
20260506203043 59 211 2.6 5.2 0.01 0.01 0.01 1 1006.8
20260506201538 60 221 1.7 6.1 0.01 0.01 0.01 1 1006.8
20260506200034 60 208 1.7 7.8 0.01 0.01 0.01 1 1006.9
20260506194529 61 219 1.7 4.3 0.00 0.00 0.00 1 1007.0
20260506193034 62 222 0.9 10.4 0.00 0.00 0.00 1 1007.2
20260506191521 64 202 1.7 5.2 0.00 0.00 0.00 10 1007.1
20260506190017 64 170 1.7 12.2 0.00 0.00 0.00 26 1007.1
20260506184511 64 159 3.5 9.6 0.00 0.00 0.00 30 1007.2
20260506183007 65 214 4.3 8.7 0.00 0.00 0.00 36 1007.4
20260506181503 65 159 4.3 10.4 0.00 0.00 0.00 39 1007.6
20260506180100 66 207 4.3 9.6 0.00 0.00 0.00 41 1007.6
20260506174554 67 190 3.5 12.2 0.00 0.00 0.00 44 1007.7
20260506173058 68 219 3.5 11.3 0.00 0.00 0.00 46 1008.2
20260506171546 67 160 3.5 7.8 0.00 0.00 0.00 45 1008.1
20260506170046 68 236 4.3 13.0 0.00 0.00 0.00 47 1007.9
20260506164551 68 229 3.5 11.3 0.00 0.00 0.00 43 1008.3
20260506163037 67 112 1.7 12.2 0.00 0.00 0.00 44 1008.4
20260506161529 67 225 3.5 7.0 0.00 0.00 0.00 42 1008.5
20260506160026 67 149 2.6 7.0 0.00 0.00 0.00 41 1008.8
20260506154520 67 196 4.3 8.7 0.00 0.00 0.00 42 1009.0
20260506153016 67 229 3.5 8.7 0.00 0.00 0.00 40 1009.2
20260506151514 67 167 2.6 7.0 0.00 0.00 0.00 38 1009.2
20260506150007 66 225 2.6 7.8 0.00 0.00 0.00 35 1009.3
20260506144502 65 159 2.6 7.0 0.00 0.00 0.00 30 1009.3